الصفحة الرئيسية
METAR-TAF:

METAR-TAF

مطار :

Limon Municipal Airport

Limon, كولورادو, الولايات المتحدة

دائرة عرض: 39-16-24N, خط طول: 103-40-00W, ارتفاع: 1635 متر

مراقبة الطقس الحالي

تاريخ ووقت الإصدار 34 دقيقة قبل الساعة 11:55UTC
ريح 7 عقدة من الجنوب
درجة الحرارة 16°درجة مئوية
الرطوبة 77%
ضغط 1019 hPa
الرؤية: 16.1 كم
سماء صافية

METAR: KLIC 151155Z AUTO 17007KT 10SM CLR 16/12 A3010 RMK AO2 SLP121 T01610117 10172 20144 55004

زمن: 06:29 (12:29 UTC)


TAF: مفقودة

أرصاد الطقس والتوقعات من أكثر من 4000 مطار (تقارير الطقس للمطار METAR والتنبؤ بالطقس بالمطارTAF).

المحطات المتاحة هي النقط الصفراء والحمراء على الخريطة.

حرك المؤشر فوق النقطة لمعرفة اسم المحطة.

ثم انقر لمعرفة أرصاد وتوقعات الطقس.

لتغيير الخارطة: اضغط على الأزرار الخضراء مع رمز الصليب الأسود للتكبير. على الزر الأخضر مع شرطة للتصغير، أو على الأسهم الخضراء للخرائط المجاورة.


METAR-TAF: